TimeCST,TemperatureF,Dew PointF,Humidity,Sea Level PressureIn,VisibilityMPH,Wind Direction,Wind SpeedMPH,Gust SpeedMPH,PrecipitationIn,Events,Conditions,WindDirDegrees,DateUTC
12:53 AM,66.9,66.0,97,30.09,9.0,South,10.4,-,N/A,,Overcast,170,2013-01-14 06:53:00
1:53 AM,66.9,66.0,97,30.09,7.0,South,6.9,-,N/A,,Overcast,170,2013-01-14 07:53:00
2:24 AM,66.2,66.2,100,30.10,8.0,SSE,9.2,-,N/A,,Overcast,160,2013-01-14 08:24:00
2:53 AM,66.9,66.0,97,30.09,8.0,South,8.1,-,N/A,,Overcast,170,2013-01-14 08:53:00
3:53 AM,66.9,66.0,97,30.09,8.0,South,8.1,-,N/A,,Overcast,170,2013-01-14 09:53:00
4:19 AM,66.2,66.2,100,30.10,6.0,South,8.1,-,N/A,,Overcast,170,2013-01-14 10:19:00
4:53 AM,66.9,66.0,97,30.10,5.0,South,8.1,-,N/A,,Overcast,180,2013-01-14 10:53:00
5:53 AM,66.9,66.0,97,30.11,5.0,South,11.5,-,N/A,,Overcast,180,2013-01-14 11:53:00
6:53 AM,66.9,66.0,97,30.13,7.0,South,6.9,-,N/A,,Overcast,190,2013-01-14 12:53:00
7:06 AM,68.0,66.2,94,30.15,8.0,SSW,6.9,-,N/A,,Overcast,200,2013-01-14 13:06:00
7:39 AM,68.0,66.2,94,30.15,8.0,South,8.1,-,N/A,,Overcast,190,2013-01-14 13:39:00
7:48 AM,69.8,66.2,88,30.16,8.0,SSW,8.1,-,N/A,,Overcast,200,2013-01-14 13:48:00
7:53 AM,69.1,66.0,90,30.15,8.0,SSW,10.4,-,N/A,,Overcast,200,2013-01-14 13:53:00
8:35 AM,69.8,66.2,88,30.17,10.0,SSW,11.5,-,N/A,,Overcast,200,2013-01-14 14:35:00
8:53 AM,70.0,66.9,90,30.17,10.0,South,9.2,-,N/A,,Overcast,180,2013-01-14 14:53:00
9:53 AM,72.0,66.0,81,30.16,10.0,South,11.5,-,N/A,,Overcast,190,2013-01-14 15:53:00
10:53 AM,71.1,64.9,81,30.13,10.0,South,11.5,-,N/A,,Overcast,170,2013-01-14 16:53:00
11:14 AM,71.6,64.4,78,30.13,10.0,South,13.8,-,N/A,,Overcast,190,2013-01-14 17:14:00
11:53 AM,73.9,64.0,71,30.12,10.0,South,13.8,20.7,N/A,,Mostly Cloudy,190,2013-01-14 17:53:00
12:53 PM,75.9,63.0,64,30.10,10.0,SSW,13.8,-,N/A,,Mostly Cloudy,200,2013-01-14 18:53:00
1:08 PM,78.8,64.4,61,30.11,10.0,SSW,11.5,-,N/A,,Mostly Cloudy,210,2013-01-14 19:08:00
1:16 PM,77.0,62.6,61,30.10,10.0,SSW,12.7,-,N/A,,Scattered Clouds,200,2013-01-14 19:16:00
1:53 PM,75.9,62.1,62,30.09,10.0,SSW,17.3,23.0,N/A,,Mostly Cloudy,200,2013-01-14 19:53:00
2:53 PM,77.0,62.1,60,30.10,10.0,South,13.8,-,N/A,,Partly Cloudy,190,2013-01-14 20:53:00
4:53 PM,72.0,60.1,66,30.14,10.0,SSW,9.2,-,N/A,,Clear,200,2013-01-14 22:53:00
5:53 PM,70.0,60.1,71,30.14,10.0,SSW,8.1,-,N/A,,Clear,200,2013-01-14 23:53:00
6:53 PM,68.0,60.1,76,30.14,10.0,South,8.1,-,N/A,,Clear,190,2013-01-15 00:53:00
7:53 PM,68.0,60.1,76,30.14,10.0,South,8.1,-,N/A,,Overcast,180,2013-01-15 01:53:00
8:53 PM,66.0,60.1,81,30.14,10.0,South,6.9,-,N/A,,Clear,170,2013-01-15 02:53:00
9:53 PM,64.9,61.0,87,30.12,10.0,South,6.9,-,N/A,,Clear,170,2013-01-15 03:53:00
10:53 PM,63.0,61.0,93,30.12,10.0,South,6.9,-,N/A,,Clear,170,2013-01-15 04:53:00
11:13 PM,62.6,60.8,94,30.14,10.0,South,5.8,-,N/A,,Partly Cloudy,180,2013-01-15 05:13:00
11:27 PM,62.6,60.8,94,30.13,10.0,South,5.8,-,N/A,,Mostly Cloudy,170,2013-01-15 05:27:00
11:53 PM,64.0,62.1,93,30.11,10.0,SSE,10.4,-,N/A,,Overcast,160,2013-01-15 05:53:00